Find Starlink 11381

NORAD ID: 62094 Int'l Des: 2024-220 Owner: SPXS Country: US Constellation: starlink operational
LEOCIRCULAR

Current View

Loading 3D Globe...

About Starlink 11381

Starlink 11381 (NORAD 62094) is a starlink constellation satellite (v2 mini d2c) launched Nov 25, 2024 by SPXS of US. It operates in LEO, CIRCULAR orbit with a mass of 960.00 kg.

About Starlink 11381

Description loading...

Upcoming Passes

Passes for default location (London). Set your location on the main map for personalized predictions.

Altitude History

Loading altitude history...

Two-Line Element Set

1 62094U 24220G 26171.31091868 .00129119 00000-0 99389-3 0 9998
2 62094 43.0010 144.4345 0001432 281.8669 78.2038 15.70847189 91093
Epoch: Jun 20, 2026 • Age: 35 hours

Current Status

Altitude 355.3 km
Velocity 7.70 km/s
Sub-Earth Point 23.27°N, 27.67°W
Launch Date Nov 25, 2024
Age 1.5 years
Type internet

Technical Details

Classification Payload
Mass 960.00 kg
Dry Mass 910.00 kg
Total Mass 960.00 kg
Length 0.30 m
Diameter 4.10 m
Span 29.00 m
Shape Box + pan
Manufacturer SPXS
Bus Type Starlink V2MD
Phase Status In Orbit
Owner/State SPXS/US

Most Searched